User: anonymous   Login
Location: Bethera
(33.2010°N, 79.7880°W)
Time: 22:06:17
(UTC-04:00)
Language:

Cosmos 1833 Rocket - Orbit

View from above orbital plane
View from above orbital plane
View from above satellite
View from above satellite

Ground track
Ground track

The orbit data is extracted from the following two-line orbital elements,

1 17590U 87027B   17289.43125051 +.00000081 +00000-0 +64531-4 0  9996
2 17590 071.0023 254.6622 0003164 138.8595 221.2768 14.16749858581068
Epoch (UTC): 16 October 2017 10:21:00
Eccentricity: 0.0003164
inclination: 71.0023°
perigee height: 834 km
apogee height: 838 km
right ascension of ascending node: 254.6622°
argument of perigee: 138.8595°
revolutions per day: 14.16749858
mean anomaly at epoch: 221.2768°
orbit number at epoch: 58106

The dashed part of the orbit path shows where the satellite is in the earth's shadow,  

DLR